TimeEST,TemperatureF,Dew PointF,Humidity,Sea Level PressureIn,VisibilityMPH,Wind Direction,Wind SpeedMPH,Gust SpeedMPH,PrecipitationIn,Events,Conditions,WindDirDegrees,DateUTC
12:50 AM,15.8,-5.8,38,-9999,85.0,SSW,24.2,-,N/A,,Overcast,200,2013-02-23 05:50:00
1:47 AM,14.0,-7.6,38,-9999,85.0,SW,24.2,29.9,N/A,,Overcast,220,2013-02-23 06:47:00
2:50 AM,14.0,3.2,62,-9999,90.0,SW,27.6,-,N/A,,Mostly Cloudy,220,2013-02-23 07:50:00
3:52 AM,15.8,12.2,86,-9999,15.0,SW,29.9,-,N/A,,Overcast,230,2013-02-23 08:52:00
4:50 AM,12.7,11.5,95,-9999,20.0,SW,20.7,34.5,N/A,Snow,Light Snow,220,2013-02-23 09:50:00
5:53 AM,14.0,10.4,86,-9999,15.0,SW,19.6,29.9,N/A,,Overcast,230,2013-02-23 10:53:00
6:51 AM,14.0,14.0,100,-9999,0.1,WSW,18.4,25.3,N/A,Fog,Light Freezing Fog,240,2013-02-23 11:51:00
7:52 AM,17.6,17.6,100,-9999,0.1,West,24.2,29.9,N/A,Fog-Snow,Light Snow,270,2013-02-23 12:52:00
8:52 AM,19.4,19.4,100,-9999,0.1,West,18.4,-,N/A,Fog,Light Freezing Fog,260,2013-02-23 13:52:00
9:51 AM,21.2,21.2,100,-9999,0.1,West,19.6,-,N/A,Fog,Light Freezing Fog,260,2013-02-23 14:51:00
10:49 AM,19.4,19.4,100,-9999,0.1,West,17.3,-,N/A,Fog,Light Freezing Fog,270,2013-02-23 15:49:00
11:49 AM,17.6,17.6,100,-9999,0.0,West,25.3,-,N/A,Fog-Snow,Light Snow,270,2013-02-23 16:49:00
12:53 PM,19.4,19.4,100,-9999,0.0,West,25.3,33.4,N/A,Fog,Light Freezing Fog,270,2013-02-23 17:53:00
1:49 PM,17.6,17.6,100,-9999,0.1,West,21.9,27.6,N/A,Fog,Light Freezing Fog,260,2013-02-23 18:49:00
2:54 PM,15.8,15.8,100,-9999,0.1,SW,25.3,29.9,N/A,Fog-Snow,Light Snow,220,2013-02-23 19:54:00
3:50 PM,14.0,14.0,100,-9999,0.0,SSW,24.2,-,N/A,Fog-Snow,Light Snow,200,2013-02-23 20:50:00
4:59 PM,14.0,14.0,100,-9999,0.1,SW,26.5,-,N/A,Fog-Snow,Light Snow,220,2013-02-23 21:59:00
5:50 PM,14.0,14.0,100,-9999,0.1,SW,27.6,-,N/A,Fog-Snow,Light Snow,220,2013-02-23 22:50:00
6:52 PM,12.2,12.2,100,-9999,0.1,SSW,28.8,-,N/A,Fog-Snow,Light Snow,200,2013-02-23 23:52:00
7:52 PM,15.8,15.8,100,-9999,0.1,SSW,27.6,-,N/A,Fog-Snow,Snow,200,2013-02-24 00:52:00
8:51 PM,15.8,15.8,100,-9999,0.1,SSW,27.6,-,N/A,Fog-Snow,Snow,210,2013-02-24 01:51:00
9:48 PM,17.6,17.6,100,-9999,0.1,SSW,29.9,-,N/A,Fog-Snow,Snow,210,2013-02-24 02:48:00
10:54 PM,19.4,19.4,100,-9999,0.1,SW,27.6,32.2,N/A,Fog-Snow,Snow,220,2013-02-24 03:54:00
11:57 PM,17.6,17.6,100,-9999,0.1,SSW,21.9,33.4,N/A,Fog-Snow,Light Snow,210,2013-02-24 04:57:00